Content
SEND FEEDBACK

Daily
Averages
Monthly
Summary
Australia

TENNANT CREEK, NORTHERN TERRITORY


Home > Oceania > Australia > Northern Territory
Elevation: 1230 feet     Latitude: 19 38S     Longitude: 134 11E

WEATHER
 
SELECT A DAY
Number of Records: 156,900;   Date Range: 2/21/03 - 7/9/14
 
SHARE

PRINT THIS DATA

[ ← Previous Day ]
WEATHER ALMANAC - JANUARY 31, 2013
[ Next Day → ]
[ °C ]   °F
Weather ElementAverageHighLow
Temperature90.3 °F102.2 °F (3:30 pm)76 °F (6:00 am)
Dewpoint42.1 °F (7:00 pm)22 °F (6:00 pm)
Humidity20.8 %100 % (2:30 pm)4 % (3:00 pm)
Barometer29.84 in29.92 in (5:30 am)29.72 in (6:00 pm)
Wind Speed8.6 mph13.8 mph (4:30 pm)
Weather ElementAverage
Visibility7.4 mi
Wind DirectionESE (117.4 °)

Weather ElementTotal
Precipitation---
Cooling Degree Days24.1 (Base 65)
Growing Degree Days39.1 (Base 50)
Averaged from 39 records on January 31, 2013
WEATHER CONDITIONS BREAKOUT
WIND DIRECTION BREAKOUT
WEATHER BY HOUR - JANUARY 31, 2013
[ °C ]   °F
Local TimeTemperatureDewpointHumidityBarometerVisibilityWind DirectionWind SpeedGust SpeedPrecipitationEventsConditions
12:30 AM80.0 °F43.0 °F17 %29.82 inNorth5.8 mph
12:30 AM80.6 °F42.8 °F26 %29.89 in6.2 miNorth (360°)5.8 mph
1:30 AM82.4 °F41.0 °F23 %29.89 in6.2 miEast (90°)6.9 mph
2:30 AM80.6 °F39.2 °F23 %29.89 in6.2 miEast (80°)8.1 mph
3:00 AM81.0 °F36.0 °F11 %29.81 inEast (80°)9.2 mph
3:30 AM80.0 °F35.0 °F11 %29.81 inEast (90°)10.4 mph
3:30 AM80.6 °F35.6 °F20 %29.89 in6.2 miEast (90°)10.4 mph
4:30 AM80.6 °F33.8 °F18 %29.89 in6.2 miEast (100°)11.5 mph
5:30 AM77.0 °F32.0 °F19 %29.92 in6.2 miESE (120°)8.1 mph
6:00 AM76.0 °F33.0 °F11 %29.83 inESE (110°)8.1 mph
6:30 AM77.0 °F31.0 °F10 %29.83 inEast (100°)8.1 mph
6:30 AM77.0 °F30.2 °F18 %29.92 in6.2 miEast (100°)8.1 mph
7:30 AM80.6 °F33.8 °F18 %29.92 in6.2 miESE (110°)11.5 mph
8:30 AM87.8 °F39.2 °F18 %29.92 in6.2 miEast (100°)12.7 mph
9:00 AM91.0 °F44.0 °F11 %29.85 in22.0 miEast (100°)10.4 mphPartly Cloudy
9:30 AM93.0 °F49.0 °F14 %29.85 inEast (90°)11.5 mph
9:30 AM93.2 °F50.0 °F23 %29.92 in6.2 miEast (90°)11.5 mph
10:30 AM95.0 °F55.4 °F26 %29.92 in6.2 miEast (80°)10.4 mph
11:30 AM96.8 °F66.2 °F37 %29.89 in6.2 miEast (90°)6.9 mph
12:00 PM98.0 °F72.0 °F33 %29.81 inSE (140°)5.8 mph
12:30 PM99.0 °F82.0 °F50 %29.80 inEast (100°)5.8 mph
12:30 PM98.6 °F82.4 °F60 %29.86 in6.2 miEast (100°)5.8 mph
1:30 PM100.4 °F95 %29.86 in6.2 miSouth (170°)10.4 mph
2:30 PM100.4 °F100 %29.83 in6.2 miSouth (170°)12.7 mph
3:00 PM100.0 °F28.0 °F4 %29.74 in22.0 miESE (110°)12.7 mphPartly Cloudy
3:30 PM101.0 °F28.0 °F4 %29.74 inSE (140°)8.1 mph
3:30 PM102.2 °F28.4 °F7 %29.80 in6.2 miSE (140°)8.1 mph
4:30 PM102.2 °F24.8 °F6 %29.80 in6.2 miSouth (170°)13.8 mph
5:30 PM100.4 °F23.0 °F6 %29.80 in6.2 miSE (140°)9.2 mph
6:00 PM101.0 °F22.0 °F4 %29.72 inSSE (150°)9.2 mph
6:30 PM99.0 °F27.0 °F4 %29.73 inSE (130°)10.4 mph
6:30 PM98.6 °F26.6 °F8 %29.80 in6.2 miSE (130°)10.4 mph
7:30 PM96.8 °F32.0 °F10 %29.83 in6.2 miSSE (160°)5.8 mph
8:30 PM91.4 °F32.0 °F12 %29.83 in6.2 miSE (130°)5.8 mph
9:00 PM92.0 °F31.0 °F5 %29.76 inESE (120°)5.8 mph
9:30 PM89.0 °F37.0 °F8 %29.77 inEast (100°)3.5 mph
9:30 PM89.6 °F37.4 °F16 %29.83 in6.2 miEast (100°)3.5 mph
10:30 PM87.8 °F30.2 °F13 %29.86 in6.2 miESE (110°)5.8 mph
11:30 PM86.0 °F28.4 °F12 %29.86 in6.2 miEast (90°)8.1 mph
Hourly data recorded from YTNK, located miles away from Tennant Creek, Northern Territory







STORIES FROM OUR PARTNERS